Regional Weather Roundup
Issued by NWS

Home | Current Version | Previous Version | Text Only | Print | Product List | Glossary Off
Versions: 1 2 3 4 5 6 7 8 9 10 11 12 13 14 15 16 17 18 19 20 21 22 23 24 25 26 27 28 29 30 31 32 33 34 35 36 37 38 39 40 41 42 43 44 45 46 47 48 49 50

858
ASUS43 KLOT 261009
RWRIL

ILLINOIS REGIONAL WEATHER ROUNDUP
NATIONAL WEATHER SERVICE CHICAGO/ROMEOVILLE IL
500 AM CDT MON SEP 26 2016

NOTE: "FAIR" INDICATES FEW OR NO CLOUDS BELOW 12,000 FEET WITH NO
SIGNIFICANT WEATHER AND/OR OBSTRUCTIONS TO VISIBILITY.

* THESE STATIONS ARE NOT UNDER NWS QUALITY CONTROL. THEY ALSO MAY NOT
  REPORT WEATHER SUCH AS PRECIPITATION OR FOG.

ILZ001-002-007-009-015-016-024-261100-
NORTHWEST ILLINOIS

CITY           SKY/WX    TMP DP  RH WIND       PRES   REMARKS
MOLINE         CLOUDY    58  47  66 W9        30.06R
STERLING*      CLOUDY    58  51  78 W9        30.03S
SAVANNA*       CLOUDY    57  48  71 W8        30.03R
$$

ILZ003-004-008-010-011-017-018-261100-
NORTH CENTRAL ILLINOIS

CITY           SKY/WX    TMP DP  RH WIND       PRES   REMARKS
ROCKFORD       CLOUDY    58  51  78 W12       30.01S
FREEPORT*      CLOUDY    55  49  81 SW9       30.02S
ROCHELLE*      CLOUDY    57  51  81 W9        30.02S
DE KALB*       CLOUDY    58  51  77 W9G17     30.01S
$$

ILZ005-006-012>014-019>023-261100-
NORTHEAST ILLINOIS

CITY           SKY/WX    TMP DP  RH WIND       PRES   REMARKS
CHICAGO-OHARE  CLOUDY    60  49  66 W9        29.97R
CHICAGO-MIDWAY CLOUDY    62  50  64 W13       29.97R
AURORA         CLOUDY    60  51  72 W10       30.00S
LANSING*       CLOUDY    59  57  94 W10       29.99R
JOLIET*        CLOUDY    61  52  72 W6        30.01R
WAUKEGAN       CLOUDY    59  49  69 W5        29.94R
DUPAGE AIRPORT CLOUDY    60  49  66 W10       29.98R
KANKAKEE*      CLOUDY    58  56  96 W6        30.02R
WHEELING       CLOUDY    60  49  66 W9        29.98R
MORRIS*        CLOUDY    60  51  72 W7        30.01R
ROMEOVILLE*    CLOUDY    60  53  79 W8        30.00R
NORTHERLY ISL    N/A     62  50  64 W10         N/A
$$

LMZ740>746-261100-
SOUTHERN LAKE MICHIGAN

STATION/POSITION SKY/WX   TEMP    WIND        PRES    VSBY  WAVE
                          AIR SEA DIR/SP/G                  HT/PER
                          (F)     (DEG/KT/KT) (MB)    (MI)  (FT/S)
SOUTHERN BUOY              63 71  290/ 21/ 27 1012.4R         4/ 5
WILMETTE HARBOR            62 64  310/ 14/ 17   N/A           2/ 3
HARRISON CRIB              63     290/ 20/ 23   N/A
BURNHAM HARBOR             62     320/  9/ 16   N/A
CALUMET HARBOR             60     260/  3/  6 1014.0F
BURNS HARBOR               61     230/  9/ 13 1015.2R
MICHIGAN CITY              62     240/ 15/ 16   N/A
MICHIGAN CITY 6N           63 67  290/ 16/ 21   N/A           4/ 5
ST. JOSEPH                 64 68  280/ 17/ 23 1013.6F         5/ 5
$$

ILZ025>027-034>036-040-047-049-050-058-095>099-261100-
WEST-CENTRAL ILLINOIS

CITY           SKY/WX    TMP DP  RH WIND       PRES   REMARKS
QUINCY         CLOUDY    59  52  77 W9        30.12R
GALESBURG*     CLOUDY   N/A N/A N/A MISG      30.08
MACOMB*        CLOUDY    58  52  81 W8        30.12R
JACKSONVILLE*  CLOUDY    58  56  91 W6        30.11R
PITTSFIELD*    CLOUDY    60  55  85 W5        30.13R
$$

ILZ028>032-037-038-041>044-048-051>054-059>061-261100-
CENTRAL ILLINOIS

CITY           SKY/WX    TMP DP  RH WIND       PRES   REMARKS
PONTIAC        CLOUDY    60  56  89 W8        30.04R
BLOOMINGTON    CLOUDY    58  54  86 W9        30.06R
DECATUR        CLOUDY    60  55  83 NW9       30.06S
PEORIA         CLOUDY    60  52  74 W8        30.07R
LACON*         CLOUDY    60  50  70 W5        30.05R
LINCOLN*       CLOUDY    59  55  88 W3        30.07R
SPRINGFIELD    CLOUDY    60  56  86 W7        30.09S
TAYLORVILLE    CLOUDY    58  56  95 W5        30.08R
$$

ILZ033-039-045-046-055>057-062-063-261100-
EAST-CENTRAL ILLINOIS

CITY           SKY/WX    TMP DP  RH WIND       PRES   REMARKS
CHAMPAIGN      LGT RAIN  58  56  93 W6        30.05F
RANTOUL*       DRIZZLE   59  58  96 W6        30.04S
MATTOON        LGT RAIN  58  55  90 NW9       30.07R
PARIS*         LGT RAIN  58  57  95 NW3       30.06R
$$

ILZ079-100>102-261100-
SOUTHWEST ILLINOIS

CITY           SKY/WX    TMP DP  RH WIND       PRES   REMARKS
ALTON          CLOUDY    58  56  94 W6        30.12R
BELLEVILLE     CLOUDY    59  59  99 NW2       30.10S
CAHOKIA*       CLOUDY    61  57  87 W5        30.11S
SPARTA*        RAIN      58  57  95 NW5       30.13S
$$

ILZ064>066-069>071-074>076-080>082-084>086-088>090-092>094-261100-
SOUTH-CENTRAL ILLINOIS

CITY           SKY/WX    TMP DP  RH WIND       PRES   REMARKS
CARBONDALE     CLOUDY    62  58  86 NW13      30.11R
CAIRO*         LGT RAIN  62  61  96 N6        30.09R
EFFINGHAM*     LGT RAIN  59  59  99 W7        30.10R
MARION         CLOUDY    64  63  94 NW3       30.11R
MT. VERNON     CLOUDY    63  54  72 N5        30.11R
CENTRALIA*     LGT RAIN  59  58  94 W6        30.12R
SALEM*         HVY RAIN  60  56  88 NW7       30.10R
METROPOLIS*    LGT RAIN  63  61  94 CALM      30.09R
$$

ILZ067-068-072-073-078-083-087-091-261100-
SOUTHEAST ILLINOIS

CITY           SKY/WX    TMP DP  RH WIND       PRES   REMARKS
LAWRENCEVILLE  RAIN      60  57  89 N8        30.06R FOG
FLORA*         CLOUDY    64  59  84 NW8       30.08S
FAIRFIELD*     CLOUDY    61  60  95 CALM      30.07S
HARRISBURG*    CLOUDY    62  60  94 NW7       30.09R
ROBINSON*      LGT RAIN  60  58  93 NW3       30.07R
CARMI*         LGT RAIN  60  59  97 NW8       30.07S
$$

ABBREVIATIONS USED IN REMARKS
   TC - TEMPERATURE IN CELSIUS
  WCI - WIND CHILL INDEX
   HX - HEAT INDEX
  VSB - VISIBILITY
$$





USA.gov is the U.S. government's official web portal to all federal, state and local government web resources and services.